Hourly Data Report for October 12, 2013

All times are specified in Local Standard Time (LST). Add 1 hour to adjust for Daylight Saving Time where and when it is observed.

ST LEONARD CS
NEW BRUNSWICK

47°09'28.050" N
67°49'55.014" W
245.00 m
810I001
71019
WIY

Download Data

Hourly Data (October 2013)
Hourly Data Report for October 12, 2013
Temp Definition
°C
Dew Point Temp Definition
°C
Rel Hum Definition
%
Wind Dir Definition
10's deg

Wind Spd Definition
km/h
Visibility Definition
km
Stn Press Definition
kPa
Hmdx Definition


Wind Chill Definition


Weather Definition


TIME
00:00 6.7 5.0 89 1 6   99.56     LegendNANA
01:00 6.3 5.4 94 2 9   99.60     LegendNANA
02:00 6.8 6.0 95 3 9   99.64     LegendNANA
03:00 7.3 6.6 95 3 7   99.69     LegendNANA
04:00 7.4 6.6 95 3 4   99.76     LegendNANA
05:00 7.7 6.9 95 4 4   99.81     LegendNANA
06:00 7.9 7.0 94   0   99.84     LegendNANA
07:00 7.9 7.0 94 7 4   99.88     LegendNANA
08:00 8.2 7.2 93 7 4   99.94     LegendNANA
09:00 9.1 6.7 85 15 2   100.00     LegendNANA
10:00 9.5 6.1 79 16 6   100.02     LegendNANA
11:00 11.2 6.3 72 16 4   100.04     LegendNANA
12:00 11.3 5.8 69 23 2   100.00     LegendNANA
13:00 14.1 5.5 56 18 2   99.93     LegendNANA
14:00 13.9 5.0 55 32 4   99.90     LegendNANA
15:00 14.6 4.6 51 32 4   99.89     LegendNANA
16:00 14.3 4.1 50 12 6   99.87     LegendNANA
17:00 14.4 4.3 51   0   99.87     LegendNANA
18:00 10.9 6.0 72 22 6   99.88     LegendNANA
19:00 7.4 5.1 85   0   99.91     LegendNANA
20:00 5.1 3.8 91   0   99.92     LegendNANA
21:00 3.9 2.8 93   0   99.96     LegendNANA
22:00 3.8 3.5 98 8 4   99.99     LegendNANA
23:00 3.7 3.3 97   0   100.00     LegendNANA

Notes on Data Quality.

Legend

  • E = Estimated
  • M = Missing
  • NA = Not Available
  • ‡ = Partner data that is not subject to review by the National Climate Archives
Date modified: